Regional Weather Roundup
Issued by NWS

Home | Current Version | Previous Version | Text Only | Print | Product List | Glossary Off
Versions: 1 2 3 4 5 6 7 8 9 10 11 12 13 14 15 16 17 18 19 20 21 22 23 24 25 26 27 28 29 30 31 32 33 34 35 36 37 38 39 40 41 42 43 44 45 46 47 48 49 50

000
ASUS45 KBOI 251310
RWRID
WEATHER ROUNDUP FOR IDAHO
NATIONAL WEATHER SERVICE BOISE ID
600 AM MST SUN JAN 25 2015

NOTE: "FAIR" INDICATES FEW OR NO CLOUDS BELOW 12000 FEET
WITH NO SIGNIFICANT WEATHER AND/OR OBSTRUCTIONS TO VISIBILITY

IDZ012-014-251400-
SOUTHWEST IDAHO


CITY           SKY/WX    TMP DP  RH WIND       PRES   REMARKS
BOISE          CLEAR     28  26  92 CALM      30.46R
CALDWELL       CLOUDY    27  21  80 CALM      30.49S VSB 1/2
MOUNTAIN HOME  CLEAR     28  26  91 E8        30.43F WCI  20
$$

IDZ016-017-251400-
SOUTHCENTRAL IDAHO


CITY           SKY/WX    TMP DP  RH WIND       PRES   REMARKS
BURLEY         PTCLDY    28  27  96 CALM      30.41S FOG
JEROME         CLEAR     27  24  89 NE12      30.42S WCI  17
TWIN FALLS     PTCLDY    29  25  85 S6        30.42S FOG     WCI  23
$$

IDZ019>023-251400-
SOUTHEAST IDAHO


CITY           SKY/WX    TMP DP  RH WIND       PRES   REMARKS
IDAHO FALLS    CLOUDY    27  25  92 N6        30.44F FOG     WCI  20
POCATELLO      CLOUDY    30  30 100 NE7       30.44S WCI  23
REXBURG        CLOUDY    26  26 100 CALM      30.43F FOG
$$

IDZ006-010-011-018-031-032-251400-
CENTRAL IDAHO MOUNTAINS


CITY           SKY/WX    TMP DP  RH WIND       PRES   REMARKS
MCCALL         CLOUDY    33  32  96 N3        30.39F
HAILEY         CLEAR     21  19  93 CALM      30.41S FOG
STANLEY          N/A     25  22  88 SE6       30.43F WCI  18
SALMON         CLEAR     23  19  86 SE6       30.37F WCI  16
CHALLIS        CLEAR     26  24  92 S5        30.36F WCI  20
$$

IDZ002-004-006-007-026-251400-
NORTHERN IDAHO


CITY           SKY/WX    TMP DP  RH WIND       PRES   REMARKS
LEWISTON       CLOUDY    49  38  65 S3        30.26S
LOWELL           N/A     37  34  89 VRB3      30.36F
COEUR D`ALENE  CLOUDY    39  37  93 S8        30.21S WCI  34
MULLAN PASS    CLOUDY    37  37 100 VRB5      30.22S FOG     WCI  33
$$


USA.gov is the U.S. government's official web portal to all federal, state and local government web resources and services.